Temp
100 98 101 100 100 100 99 98 97 95 92 88 88 88 87 88 88 92 91 91 94 92 93 93 88 83 78 88 88 88 85 89 89
100 100 100 101 102 102 101 99 97 95 93 89 89 91 88 88 88 89 92 91 91 93 91 92 87 87 87 88 88 88 87 90 87
102 102 100 102 102 102 102 103 101 97 94 90 91 94 91 91 90 89 91 91 89 91 91 88 86 87 88 87 87 87 86 89 88
103 103 101 102 102 103 103 102 101 99 96 94 93 94 93 92 92 92 91 92 90 89 89 87 86 86 86 86 86 87 86 87 88
105 103 104 102 103 102 102 100 99 98 96 96 95 95 93 93 92 92 93 92 92 91 88 87 86 86 85 85 86 86 86 86 89
101 100 101 102 103 101 100 99 94 94 95 96 98 95 96 94 92 92 93 92 92 91 88 86 87 86 85 84 86 86 87 87 87
101 97 100 101 102 101 99 97 92 90 92 96 96 95 96 92 91 91 92 92 91 89 87 85 85 85 85 85 85 86 87 86 86
99 97 100 100 102 100 96 95 90 89 91 92 92 89 90 90 89 90 90 89 89 88 86 86 85 83 84 85 86 88 85 86 86
96 96 98 99 99 98 94 94 90 88 88 89 89 88 89 89 87 88 87 87 87 85 85 86 84 83 83 83 89 78 75 82 87
98 99 98 97 98 99 98 95 91 87 87 89 87 87 88 88 87 86 86 86 85 84 84 86 84 84 84 84 86 72 72 73 87
102 102 100 97 99 102 103 101 95 90 89 88 86 86 87 87 86 86 86 85 85 84 85 84 84 85 85 85 87 70 69 71 85
100 103 104 102 102 104 102 99 94 90 89 87 86 86 86 87 87 86 86 85 85 86 86 85 85 86 85 85 86 68 67 72 87
94 101 105 106 107 107 104 100 96 90 88 87 85 87 87 88 87 87 86 86 86 87 87 87 90 88 87 81 86 65 65 72 91
95 98 100 104 107 105 102 99 95 91 91 89 90 91 89 88 88 87 88 87 88 87 87 89 86 87 88 87 85 83 64 64 88
94 95 96 97 101 101 101 97 93 92 90 92 91 91 89 87 87 90 91 87 87 87 86 86 85 85 87 90 88 72 63 63 66
94 94 94 97 96 97 98 96 94 93 91 91 90 89 88 87 87 88 90 87 86 87 86 90 88 89 90 92 92 92 65 61 62
96 94 95 96 95 94 92 92 92 93 91 90 89 87 88 89 87 86 89 91 91 92 91 91 92 92 92 94 94 94 91 82 75
94 94 95 94 94 92 90 90 89 92 90 89 89 89 90 90 91 87 89 91 94 94 95 93 96 96 96 96 94 95 83 83 88
91 91 92 91 91 91 91 89 88 88 90 88 88 88 90 93 95 92 94 93 90 56 61 59 61 60 81 98 74 62 62 59 58
77 89 89 88 88 88 88 87 87 87 86 87 86 88 91 94 88 96 94 94 93 90 76 57 56 55 57 59 60 55 54 55 54
MSLP
998.79 999.90 1000.62 1001.46 1002.35 1003.46 1004.45 1005.53 1006.60 1007.81 1008.79 1009.88 1010.75 1011.57 1012.19 1012.82 1013.37 1013.53 1013.95 1014.05 1013.78 1014.39 1014.46 1014.84 1015.53 1016.20 1016.52 1015.99 1016.31 1016.55 1017.00 1017.22 1017.42
997.68 998.36 999.43 1000.27 1001.33 1002.46 1003.48 1004.59 1005.73 1006.89 1007.97 1009.16 1009.87 1010.55 1011.51 1012.19 1012.82 1013.07 1013.21 1013.61 1014.02 1014.14 1014.61 1014.81 1015.39 1015.49 1015.92 1015.90 1016.12 1016.34 1016.73 1016.78 1017.17
996.51 997.42 998.46 999.47 1000.36 1001.46 1002.56 1003.59 1004.89 1006.32 1007.35 1008.22 1008.82 1009.52 1010.58 1011.30 1011.95 1012.60 1013.00 1013.54 1013.87 1013.89 1014.37 1014.97 1015.33 1015.49 1015.63 1015.95 1016.11 1016.26 1016.56 1016.45 1016.93
995.61 996.45 997.57 998.75 999.67 1000.80 1001.97 1003.03 1004.12 1005.32 1006.50 1007.39 1008.22 1008.85 1009.65 1010.42 1011.09 1011.72 1012.44 1012.92 1013.51 1013.97 1014.41 1014.87 1015.14 1015.42 1015.54 1015.84 1016.07 1016.19 1016.38 1016.42 1016.51
995.22 995.99 996.95 998.23 999.11 1000.16 1001.27 1002.52 1003.54 1004.59 1005.70 1006.44 1007.21 1008.05 1009.01 1009.80 1010.63 1011.10 1011.53 1012.15 1012.83 1013.55 1014.14 1014.60 1014.85 1015.15 1015.42 1015.68 1015.83 1016.02 1016.24 1016.36 1016.11
995.31 996.03 996.72 997.86 998.66 999.57 1000.69 1001.96 1003.20 1004.13 1005.02 1005.76 1006.50 1007.49 1008.26 1009.06 1009.99 1010.55 1010.90 1011.57 1012.26 1013.03 1013.79 1014.25 1014.55 1014.86 1015.15 1015.38 1015.59 1015.83 1016.04 1016.16 1016.23
995.26 996.15 996.53 997.37 998.17 999.13 1000.38 1001.42 1002.78 1003.87 1004.59 1005.30 1006.03 1006.89 1007.58 1008.33 1009.23 1009.87 1010.45 1011.04 1011.83 1012.67 1013.40 1013.94 1014.33 1014.59 1014.82 1015.00 1015.31 1015.61 1015.76 1015.87 1016.01
994.97 995.59 996.05 996.81 997.48 998.54 999.96 1001.05 1002.51 1003.71 1004.44 1005.05 1005.80 1006.59 1007.20 1007.79 1008.60 1009.47 1010.17 1010.83 1011.46 1012.30 1013.01 1013.58 1014.01 1014.35 1014.57 1014.80 1015.08 1015.23 1015.47 1015.61 1015.71
994.69 995.14 995.56 996.21 997.12 998.03 999.30 1000.38 1001.79 1003.06 1004.00 1004.84 1005.64 1006.40 1006.91 1007.65 1008.41 1009.21 1009.84 1010.61 1011.18 1012.00 1012.62 1013.15 1013.61 1013.94 1014.16 1014.49 1014.53 1014.68 1015.20 1015.36 1015.38
994.16 994.46 994.96 995.63 996.31 997.01 998.22 999.59 1001.00 1002.26 1003.37 1004.40 1005.26 1006.07 1006.77 1007.44 1008.11 1008.83 1009.44 1010.17 1010.87 1011.47 1012.10 1012.62 1013.06 1013.34 1013.63 1013.92 1014.16 1014.45 1015.03 1015.42 1015.29
993.71 993.87 994.16 994.86 995.56 996.33 997.45 998.75 1000.26 1001.72 1002.78 1003.72 1004.66 1005.57 1006.26 1006.99 1007.64 1008.34 1009.02 1009.61 1010.31 1010.93 1011.56 1012.08 1012.42 1012.75 1013.18 1013.43 1013.81 1014.38 1014.90 1015.40 1015.38
994.25 993.90 993.88 993.94 994.79 995.72 996.67 997.96 999.49 1000.98 1002.02 1003.09 1004.00 1004.78 1005.49 1006.21 1006.97 1007.67 1008.31 1008.92 1009.55 1010.15 1010.75 1011.41 1011.82 1012.13 1012.61 1013.06 1013.32 1013.90 1014.51 1015.00 1014.92
994.92 994.13 993.72 993.73 994.05 994.79 996.04 997.31 998.82 1000.03 1001.14 1002.13 1002.93 1003.69 1004.52 1005.42 1006.23 1006.87 1007.37 1008.10 1008.76 1009.39 1010.05 1010.58 1010.97 1011.45 1011.94 1012.39 1012.82 1013.35 1013.89 1014.55 1014.00
994.66 994.22 993.99 993.98 993.96 994.28 995.51 996.80 998.24 999.30 1000.08 1000.89 1001.72 1002.94 1004.02 1004.78 1005.53 1006.09 1006.68 1007.45 1008.11 1008.76 1009.36 1009.67 1010.35 1010.68 1011.13 1011.61 1012.21 1012.57 1013.32 1013.90 1013.70
994.41 994.12 994.20 994.41 994.39 994.79 995.66 996.72 997.68 998.36 998.94 1000.03 1001.28 1002.23 1003.20 1004.12 1004.87 1005.37 1006.08 1006.93 1007.48 1008.16 1008.84 1009.27 1009.81 1010.17 1010.48 1010.70 1011.29 1011.96 1012.80 1013.35 1013.65
994.38 994.16 994.32 994.37 994.85 995.41 995.78 996.64 997.24 997.84 999.06 999.93 1000.85 1001.69 1002.57 1003.47 1004.22 1004.82 1005.26 1006.20 1006.83 1007.49 1008.14 1008.22 1008.78 1009.13 1009.16 1009.34 1010.12 1010.92 1011.96 1012.75 1013.29
994.62 994.47 994.47 994.56 995.15 995.83 996.35 997.17 997.93 998.38 999.27 1000.11 1000.84 1001.51 1002.18 1002.88 1003.45 1004.21 1004.76 1005.54 1006.11 1006.36 1006.63 1007.02 1007.32 1007.70 1007.94 1008.38 1008.76 1009.42 1010.57 1011.92 1012.75
995.30 995.09 995.01 994.85 995.07 995.48 996.18 996.83 997.76 998.25 999.01 999.91 1000.64 1001.49 1001.94 1002.24 1002.71 1003.50 1003.99 1004.43 1004.88 1005.27 1005.44 1005.77 1005.96 1006.25 1006.61 1007.05 1007.62 1008.12 1009.12 1010.17 1011.00
996.12 995.95 996.04 995.96 996.16 995.90 996.08 996.66 997.22 997.87 998.39 999.33 999.92 1000.51 1001.17 1001.52 1001.88 1002.72 1002.95 1003.59 1004.73 1005.89 1006.14 1006.07 1005.90 1006.26 1006.16 1006.25 1007.02 1007.69 1008.53 1009.55 1010.30
997.71 997.14 996.98 996.90 996.99 997.01 997.22 997.11 997.21 997.62 998.07 998.42 999.07 999.24 999.69 1000.41 1001.34 1001.50 1002.15 1002.59 1003.27 1004.43 1006.00 1006.39 1006.69 1006.72 1006.89 1006.95 1007.62 1007.94 1008.66 1009.24 1009.85
Wind_Speed
17 21 22 23 23 22 22 21 20 19 19 18 18 18 17 14 15 10 9 10 5 7 4 4 4 6 3 6 6 6 6 6 8
12 19 23 24 24 23 23 22 21 20 19 18 19 20 16 15 14 13 10 9 9 7 5 3 5 6 8 6 6 6 7 6 6
7 13 20 21 21 22 21 22 21 20 19 20 20 20 17 15 15 14 12 10 10 7 5 6 6 7 7 7 7 7 7 6 7
6 11 16 19 20 20 20 19 20 20 19 18 18 18 17 16 15 16 14 12 10 8 8 8 7 7 7 7 8 8 7 6 3
6 8 16 16 19 20 20 19 19 19 18 18 18 17 16 17 15 15 15 13 12 11 10 9 9 9 8 9 8 7 7 7 5
5 9 14 15 17 18 19 19 16 17 19 18 18 17 18 17 16 16 15 14 13 12 11 10 10 10 10 10 9 8 7 7 5
5 10 14 16 16 17 18 18 16 16 17 18 17 18 18 16 17 17 15 14 14 13 12 11 10 10 10 10 10 9 8 8 7
9 11 15 17 18 17 18 18 17 16 16 14 15 15 15 16 15 13 13 13 14 13 12 11 10 9 10 10 9 9 11 9 8
12 14 17 18 17 18 19 20 19 16 15 15 15 15 15 14 14 14 14 13 14 14 13 12 11 10 10 11 9 11 11 8 8
14 15 16 18 20 20 19 19 17 19 17 17 16 16 14 15 15 15 15 15 15 15 14 13 12 11 11 12 12 11 10 8 8
11 14 16 17 17 17 18 18 18 17 18 17 16 16 15 15 15 15 15 15 15 15 14 14 13 12 12 11 10 9 10 10 10
11 12 11 15 16 17 16 18 18 18 18 17 18 17 16 16 16 16 16 16 16 15 14 13 13 12 12 12 11 12 12 11 11
16 9 11 12 17 17 19 19 20 20 19 19 18 17 17 16 16 16 17 16 15 14 14 14 12 13 13 13 12 13 13 13 11
14 9 7 10 14 17 18 19 20 20 20 21 19 17 16 15 16 15 15 15 13 14 13 12 13 13 12 14 14 12 16 17 13
10 6 5 7 9 13 16 18 19 19 19 17 15 16 17 16 15 14 13 14 13 13 13 11 12 11 11 12 13 12 15 16 19
6 4 6 7 8 12 14 17 17 17 13 14 16 16 16 16 15 15 12 14 14 13 13 12 12 12 12 11 11 11 15 18 17
0 5 9 11 11 12 12 12 12 10 12 12 14 15 16 15 16 15 14 12 13 13 13 13 13 12 12 12 12 11 12 10 12
2 4 6 10 12 12 13 14 13 13 13 14 13 13 13 14 13 16 14 13 13 14 13 14 14 14 13 13 13 13 12 12 13
5 6 5 6 6 10 13 13 14 12 14 14 14 14 12 11 11 13 13 13 10 10 9 7 7 3 10 12 4 10 18 16 13
4 6 7 7 7 7 5 7 10 12 12 15 15 13 13 12 12 12 12 12 13 12 5 6 4 4 4 6 2 12 14 16 12
Wind_Direction
193 208 207 205 201 199 199 198 195 196 192 197 191 193 199 197 205 204 210 208 211 214 231 212 135 192 258 211 207 202 200 206 217
213 198 203 203 199 201 200 199 200 195 195 198 194 192 192 194 198 212 209 218 204 215 215 186 196 203 204 205 201 199 190 220 209
232 208 196 201 196 197 198 199 197 196 194 194 193 193 191 191 194 198 203 208 218 217 190 204 191 199 199 196 202 197 202 200 200
258 200 190 195 195 192 194 198 194 192 194 190 191 196 190 193 196 193 197 203 210 207 198 192 201 197 197 207 206 202 199 228 205
296 215 183 190 191 187 193 188 191 190 190 190 188 186 186 193 195 198 193 200 199 197 195 199 200 196 197 200 202 199 207 214 213
227 198 173 187 189 186 189 182 187 188 187 192 183 183 187 188 194 194 199 188 194 194 194 202 202 200 201 204 208 200 208 223 218
225 189 184 190 189 184 189 185 184 185 189 188 185 183 187 181 189 192 193 186 185 187 193 198 202 205 207 204 205 202 211 208 220
191 184 191 195 195 186 188 185 181 188 188 184 183 179 186 181 184 185 182 184 180 185 189 197 197 199 203 200 199 201 210 211 213
201 193 199 199 196 185 187 187 184 185 184 182 179 181 186 177 176 178 178 179 175 182 187 193 190 189 185 187 205 185 197 225 212
215 201 196 197 194 195 188 188 178 182 181 176 179 185 186 182 178 180 180 178 178 181 187 188 193 189 186 189 210 168 187 209 241
230 209 193 197 196 199 190 184 179 178 178 178 178 184 186 184 183 183 183 180 183 180 185 191 192 193 195 200 208 168 178 193 230
320 281 225 197 194 193 183 181 169 175 176 178 179 185 188 185 184 184 183 185 184 183 185 191 196 195 195 201 211 173 180 185 212
316 289 251 214 186 185 177 176 168 171 176 178 184 186 189 183 184 187 184 184 182 183 187 193 196 196 198 198 209 176 179 190 222
300 299 242 222 194 181 176 169 167 178 177 185 187 184 184 183 187 189 184 182 178 180 188 188 200 194 198 206 209 194 185 196 229
298 275 225 191 195 179 172 171 176 184 185 179 176 176 182 184 184 189 182 183 177 179 183 189 189 192 204 206 211 219 191 201 222
314 248 169 151 172 181 176 181 189 187 172 174 174 177 181 182 182 186 176 182 179 182 184 192 194 194 205 209 194 210 170 195 216
99 164 165 153 162 172 166 176 186 186 166 175 179 187 184 181 179 181 184 186 187 197 192 199 195 203 212 206 212 205 184 201 207
116 125 136 153 167 166 167 167 180 179 167 175 186 194 197 192 189 188 185 196 194 202 204 203 203 206 210 211 209 213 204 190 198
55 75 95 116 153 161 164 171 174 175 172 176 184 188 196 200 201 187 197 193 184 56 30 333 232 314 233 212 151 155 166 180 204
45 76 79 82 93 101 128 161 175 178 180 177 186 192 184 191 206 200 201 198 196 202 171 69 337 258 273 270 28 157 172 186 183